Wind_Speed
16 17 17 18 19 20 20 20 20 21 22 22 23 23 23 23 24 25 25 25 25 25 26 27 27 28 28 29 29 29 29 30 30 30 30 30 30 30 30 29 29 28 28
17 17 19 20 21 21 21 21 21 22 23 23 23 23 22 23 24 25 25 26 25 26 26 27 28 29 29 30 30 30 30 30 30 30 30 30 30 30 30 30 29 29 29
18 18 19 20 21 22 22 23 23 23 23 22 23 23 23 24 25 26 26 26 26 27 27 28 29 30 30 30 30 30 30 30 31 31 30 30 30 31 31 31 31 30 31
18 19 19 20 21 22 22 22 23 24 24 24 24 24 24 24 25 25 26 27 28 28 28 29 29 30 30 31 30 30 30 29 29 30 30 30 30 31 31 31 32 32 32
19 19 19 20 21 21 22 22 23 23 22 22 23 24 24 25 25 26 26 27 28 28 29 29 29 29 30 30 30 29 28 28 29 29 30 30 30 30 31 32 33 33 32
19 20 19 20 20 21 21 21 22 22 22 22 23 24 24 25 25 25 26 27 28 28 29 29 29 29 29 29 29 28 28 28 28 29 29 29 30 30 31 31 32 33 33
20 19 19 20 21 22 21 21 21 21 22 22 23 24 24 24 25 25 26 27 28 29 29 28 28 28 28 27 27 27 28 28 28 28 28 28 29 29 30 30 30 31 31
19 19 20 21 22 22 22 21 21 22 22 23 24 24 24 23 24 25 26 26 27 28 28 28 29 28 27 26 26 26 27 27 26 27 27 27 27 27 28 28 29 29 29
18 18 20 21 22 22 22 22 20 20 21 23 23 23 23 23 24 24 25 26 26 26 26 26 26 26 26 25 25 25 25 25 25 25 25 25 25 26 26 27 27 26 27
18 19 21 20 20 21 20 20 19 19 20 21 22 23 23 23 24 25 25 25 24 24 25 24 24 23 23 23 23 23 23 23 23 23 23 23 24 24 24 25 25 25 26
19 20 20 19 19 20 20 18 18 19 19 20 22 22 23 23 23 23 23 22 22 23 23 23 22 22 22 22 21 21 21 22 22 22 22 23 22 23 22 23 24 25 25
18 19 19 18 18 19 18 18 18 19 19 20 22 22 22 22 22 22 22 22 22 22 22 22 22 22 22 21 21 20 20 21 21 21 22 22 22 22 22 22 23 24 23
18 18 17 17 17 17 17 18 18 18 19 20 20 21 21 21 21 21 22 22 22 21 21 21 21 22 21 21 20 20 20 20 21 21 21 21 20 20 21 21 21 21 22
17 16 15 15 15 16 16 17 18 18 19 19 19 20 20 20 20 20 21 21 20 20 21 21 21 21 21 20 20 20 20 20 19 19 18 18 18 19 19 20 20 20 21
16 15 14 14 14 15 16 16 17 17 17 17 17 18 19 19 19 18 19 19 19 19 20 20 20 19 18 19 19 19 19 18 16 16 15 16 16 17 18 18 18 19 20
14 14 14 14 14 14 15 15 15 15 15 15 16 17 17 17 17 17 18 18 18 18 19 19 18 18 18 18 17 16 16 14 14 14 15 15 16 17 17 17 17 18 18
14 13 13 13 13 13 13 13 13 13 13 14 15 16 16 16 16 16 17 17 17 17 17 18 17 17 17 16 16 14 13 13 13 13 14 15 15 15 16 16 16 16 16
11 11 11 11 12 11 11 11 12 13 13 14 15 15 16 15 15 15 16 16 15 15 16 16 16 16 15 15 14 13 13 12 12 13 13 13 13 13 13 13 13 13 13
10 9 10 11 11 10 10 10 11 12 12 13 14 14 15 15 15 15 15 14 14 15 16 16 15 15 14 13 13 13 12 12 12 12 12 12 11 11 11 11 10 10 10
8 8 9 9 10 10 10 10 10 11 12 12 13 13 13 13 13 13 13 13 14 14 15 15 15 14 14 13 13 13 12 12 11 10 10 10 9 9 9 8 8 8 8
7 7 8 9 9 9 9 9 10 11 11 12 12 12 13 13 13 12 12 13 13 14 15 15 14 14 14 14 13 12 12 11 10 10 9 8 8 7 6 6 7 7 7
6 6 7 7 8 8 8 9 10 11 11 11 11 12 12 12 12 12 12 13 13 14 14 14 14 14 13 13 13 12 11 11 10 9 8 8 6 5 5 5 6 6 6
5 5 6 7 7 8 8 9 10 11 11 11 11 11 12 12 11 11 12 13 13 13 14 14 13 13 13 13 13 13 12 11 10 9 8 8 7 6 5 5 4 4 4
5 5 5 5 6 7 7 8 9 10 10 10 10 11 11 11 11 12 12 13 13 13 14 14 14 14 14 14 13 13 12 11 10 9 9 8 8 7 5 4 4 4 4
4 4 4 5 6 6 7 7 8 9 9 9 9 10 10 11 12 12 12 12 13 13 13 14 14 14 14 14 13 13 13 12 10 10 9 8 8 7 7 6 5 5 4
3 4 5 5 5 6 6 7 7 8 8 8 9 10 11 11 11 12 13 13 12 13 13 13 13 13 13 14 13 13 13 12 11 10 10 9 8 8 7 7 6 5 4
Wind_Direction
282 282 284 283 284 285 284 285 287 288 286 285 286 286 288 287 286 287 288 289 288 288 287 286 286 286 284 283 283 278 276 275 273 272 270 269 268 268 267 266 264 262 260
282 282 283 287 288 286 284 288 290 289 287 286 285 284 287 287 288 288 289 289 289 289 289 289 287 285 284 284 283 280 277 275 274 271 269 267 266 265 265 263 261 260 259
282 286 287 289 290 290 289 290 290 290 286 285 284 287 287 286 288 289 289 289 290 291 291 291 288 286 285 285 283 281 279 276 273 271 269 268 265 264 263 262 260 259 258
282 286 288 290 291 292 293 292 291 290 286 284 287 288 288 288 289 290 290 290 291 293 293 292 288 287 286 285 283 282 280 277 275 272 270 269 267 264 261 261 259 258 257
283 285 287 289 292 293 293 293 292 289 286 287 288 289 289 288 289 290 291 293 294 294 294 293 290 288 287 286 283 282 280 277 276 274 271 269 267 264 261 260 259 258 257
282 285 286 289 292 296 294 292 291 289 288 290 291 290 289 289 289 290 291 293 294 295 294 294 292 291 290 288 285 283 281 280 277 275 273 270 267 265 263 262 260 260 259
283 283 285 288 292 295 292 293 293 291 290 293 294 291 291 291 290 290 291 293 295 296 295 294 293 292 291 289 288 285 282 281 279 277 275 272 269 266 265 263 260 260 258
282 283 285 290 292 292 291 292 292 292 294 297 297 295 294 296 296 294 294 295 297 297 296 295 294 292 291 289 287 287 284 282 279 278 275 272 269 267 265 263 261 259 256
282 286 289 291 291 289 289 289 292 294 296 297 297 296 295 297 298 298 297 297 298 300 301 299 297 295 294 292 291 290 287 284 280 278 276 271 270 268 265 264 262 259 256
283 287 290 290 290 289 288 290 294 297 299 299 299 297 296 298 298 298 300 300 301 303 304 302 301 300 299 297 293 288 286 284 282 278 276 272 271 270 267 264 262 260 258
284 287 288 289 290 291 293 293 296 299 301 303 303 302 302 303 301 302 302 302 305 306 305 302 301 300 300 298 295 291 287 285 283 280 277 273 270 268 268 267 264 262 261
286 286 286 287 290 293 294 297 299 303 306 308 308 306 307 307 306 305 303 304 304 306 306 303 300 300 299 296 295 293 290 288 285 282 279 275 272 270 269 269 267 265 263
289 287 287 289 291 292 295 298 302 306 308 309 310 311 311 309 308 307 306 305 306 307 307 305 303 302 300 297 294 292 291 289 287 284 280 277 274 271 270 268 267 265 263
291 289 288 290 292 294 297 299 302 304 305 307 312 313 313 312 309 309 310 310 310 309 309 309 307 306 303 300 296 294 291 289 287 285 282 279 275 273 272 268 266 265 264
291 290 291 292 294 296 298 301 303 303 304 307 312 315 315 315 314 314 314 315 314 314 313 313 311 309 307 305 300 296 293 289 286 287 284 282 279 277 276 273 270 268 266
290 290 291 293 297 298 300 303 306 306 309 311 315 317 319 319 318 318 318 320 320 320 319 318 316 314 311 309 306 302 300 296 294 291 287 284 281 279 277 276 274 271 268
285 288 291 294 299 301 302 307 308 310 314 316 318 318 318 319 319 319 320 321 324 324 324 323 322 320 317 314 313 311 309 306 302 297 292 289 286 283 280 278 276 272 268
285 285 292 297 304 304 305 309 310 315 318 319 320 320 319 321 322 321 322 324 328 333 335 334 332 329 327 325 324 321 317 313 308 306 303 297 291 284 284 280 277 273 267
287 287 295 300 305 308 310 315 317 320 322 322 323 324 325 323 322 324 325 329 333 337 339 340 341 340 338 335 333 331 328 323 317 314 311 306 299 292 286 284 281 274 267
288 294 300 304 307 312 316 319 322 325 326 328 330 333 334 333 332 333 335 337 339 340 341 344 346 348 346 344 340 339 337 335 331 325 318 313 308 302 295 291 285 277 270
286 295 302 306 310 316 319 322 326 331 333 334 336 339 340 341 341 340 341 343 343 343 345 348 351 353 353 352 351 350 348 347 347 341 334 327 320 313 307 301 293 285 278
292 300 304 305 311 316 320 325 329 333 336 339 341 343 343 343 343 344 346 349 350 351 351 353 354 356 358 360 360 358 358 358 356 355 355 347 335 328 322 312 302 289 280
303 304 305 306 312 317 322 327 331 333 336 340 343 346 347 348 350 352 353 354 355 355 356 358 359 359 360 0 2 3 1 0 2 3 3 1 357 349 340 332 320 305 290
307 304 308 313 318 320 324 328 333 336 338 342 346 349 351 357 359 357 353 353 355 356 358 1 2 1 359 359 0 2 2 3 5 8 7 7 4 358 352 346 337 323 307
323 312 310 314 323 328 334 338 339 343 344 347 351 355 357 358 358 357 353 352 355 356 358 358 360 1 3 3 4 5 7 6 8 11 12 9 9 10 11 5 356 342 330
334 327 326 328 332 335 338 342 347 353 360 1 359 359 358 358 357 357 357 357 357 357 357 359 1 3 5 9 12 12 12 11 9 11 12 12 12 11 13 9 2 355 344
Height
5851 5851 5851 5850 5850 5848 5847 5846 5845 5844 5843 5842 5840 5839 5837 5835 5834 5832 5830 5828 5826 5824 5822 5820 5818 5816 5815 5813 5812 5810 5809 5808 5808 5808 5808 5808 5807 5807 5808 5808 5808 5808 5809
5848 5847 5847 5846 5845 5844 5843 5842 5840 5839 5838 5836 5834 5833 5831 5829 5828 5826 5824 5822 5820 5818 5815 5813 5811 5809 5807 5805 5804 5802 5801 5800 5800 5800 5800 5800 5800 5800 5800 5800 5801 5801 5802
5844 5844 5843 5842 5841 5839 5838 5837 5835 5833 5832 5830 5829 5827 5826 5824 5822 5820 5818 5816 5814 5811 5809 5806 5803 5801 5799 5797 5795 5794 5793 5792 5791 5791 5791 5791 5792 5792 5792 5792 5793 5793 5794
5841 5840 5839 5837 5836 5835 5832 5831 5830 5828 5826 5825 5823 5822 5820 5818 5816 5814 5812 5809 5807 5804 5802 5799 5796 5794 5791 5789 5787 5785 5784 5783 5783 5783 5782 5783 5783 5784 5784 5785 5785 5785 5786
5836 5835 5834 5833 5831 5829 5827 5826 5825 5823 5821 5819 5818 5816 5814 5812 5810 5808 5805 5802 5800 5797 5794 5791 5788 5786 5784 5781 5779 5777 5776 5775 5775 5774 5774 5774 5774 5774 5775 5776 5776 5777 5778
5832 5830 5829 5828 5826 5824 5823 5821 5820 5818 5816 5814 5812 5810 5808 5806 5803 5801 5798 5796 5793 5790 5787 5784 5781 5779 5776 5774 5771 5770 5768 5768 5767 5766 5765 5765 5765 5765 5766 5767 5768 5768 5769
5827 5826 5825 5824 5822 5820 5818 5816 5815 5813 5811 5809 5806 5804 5801 5799 5796 5794 5792 5789 5786 5783 5780 5777 5774 5772 5769 5766 5764 5762 5761 5760 5759 5758 5757 5757 5757 5757 5757 5758 5759 5760 5761
5822 5821 5820 5818 5817 5815 5812 5811 5809 5808 5805 5803 5801 5798 5796 5793 5791 5788 5785 5782 5779 5776 5773 5770 5767 5765 5762 5759 5757 5755 5753 5752 5751 5750 5749 5749 5749 5749 5749 5750 5751 5752 5753
5818 5817 5815 5813 5812 5809 5807 5806 5804 5802 5800 5797 5795 5792 5790 5787 5785 5782 5779 5776 5773 5770 5766 5763 5760 5757 5755 5753 5750 5748 5746 5745 5744 5743 5742 5742 5741 5741 5742 5742 5743 5744 5745
5813 5812 5811 5809 5807 5805 5802 5800 5799 5797 5794 5792 5789 5786 5784 5781 5778 5776 5773 5770 5767 5763 5760 5757 5754 5751 5749 5746 5744 5742 5740 5739 5737 5736 5736 5735 5735 5735 5735 5735 5736 5737 5738
5808 5807 5806 5804 5803 5801 5798 5796 5794 5792 5789 5787 5784 5781 5778 5775 5773 5770 5767 5764 5761 5758 5755 5751 5749 5746 5743 5741 5739 5737 5735 5733 5732 5731 5730 5729 5729 5728 5729 5729 5729 5730 5730
5804 5802 5801 5799 5798 5796 5794 5792 5790 5787 5785 5782 5779 5776 5772 5770 5767 5765 5762 5758 5755 5753 5750 5746 5744 5741 5738 5736 5733 5731 5729 5728 5726 5725 5724 5723 5723 5722 5722 5723 5723 5723 5723
5798 5797 5795 5794 5792 5791 5789 5787 5785 5783 5780 5777 5774 5771 5768 5765 5762 5760 5757 5753 5750 5747 5744 5741 5739 5736 5733 5730 5728 5726 5724 5723 5721 5719 5718 5717 5717 5716 5716 5716 5717 5717 5717
5793 5792 5791 5789 5788 5786 5785 5783 5780 5778 5775 5773 5769 5766 5764 5761 5758 5755 5752 5749 5746 5743 5740 5737 5734 5731 5728 5725 5723 5721 5719 5717 5716 5714 5713 5712 5711 5711 5710 5710 5711 5711 5712
5789 5787 5786 5785 5783 5782 5780 5778 5776 5774 5772 5769 5766 5763 5760 5757 5754 5751 5748 5745 5742 5738 5735 5732 5729 5726 5724 5721 5718 5716 5714 5712 5711 5709 5708 5707 5707 5706 5706 5705 5705 5705 5706
5785 5784 5782 5781 5779 5778 5776 5775 5773 5770 5768 5765 5762 5760 5757 5754 5751 5748 5745 5742 5738 5735 5732 5729 5726 5723 5720 5717 5714 5712 5710 5708 5706 5705 5704 5703 5702 5701 5701 5701 5700 5700 5701
5781 5780 5779 5777 5776 5775 5773 5771 5769 5767 5764 5762 5759 5756 5754 5751 5748 5745 5742 5739 5736 5732 5729 5726 5723 5719 5716 5713 5711 5708 5706 5704 5702 5701 5700 5699 5698 5697 5696 5696 5696 5696 5696
5777 5776 5775 5774 5773 5771 5770 5768 5766 5764 5762 5759 5756 5754 5751 5748 5745 5742 5739 5737 5734 5730 5727 5724 5720 5717 5714 5711 5708 5706 5703 5701 5699 5698 5696 5695 5694 5693 5692 5692 5692 5691 5692
5774 5773 5772 5771 5770 5769 5767 5765 5763 5761 5759 5756 5754 5751 5748 5745 5743 5740 5737 5735 5732 5729 5725 5722 5718 5715 5712 5709 5706 5703 5701 5699 5697 5695 5693 5692 5691 5690 5689 5689 5688 5688 5688
5770 5770 5769 5769 5768 5766 5765 5763 5761 5759 5757 5754 5752 5749 5746 5743 5741 5738 5736 5733 5730 5727 5724 5720 5717 5714 5711 5708 5705 5702 5700 5697 5695 5693 5691 5690 5688 5687 5686 5686 5685 5686 5686
5767 5767 5767 5766 5765 5764 5762 5761 5759 5757 5755 5753 5750 5747 5745 5742 5740 5737 5734 5732 5729 5726 5723 5719 5716 5713 5710 5707 5704 5701 5699 5696 5694 5692 5690 5688 5687 5685 5685 5684 5684 5684 5684
5765 5765 5764 5764 5763 5762 5761 5759 5758 5756 5753 5751 5749 5746 5744 5741 5739 5736 5734 5731 5728 5725 5722 5719 5716 5713 5710 5707 5704 5701 5699 5696 5694 5691 5689 5687 5686 5684 5684 5683 5682 5682 5682
5763 5763 5763 5762 5761 5760 5759 5758 5756 5754 5752 5750 5748 5745 5743 5741 5738 5736 5733 5730 5728 5725 5722 5719 5716 5713 5710 5707 5704 5702 5699 5696 5694 5691 5689 5687 5686 5684 5683 5682 5682 5681 5681
5761 5761 5761 5760 5759 5758 5757 5756 5755 5753 5751 5749 5747 5745 5743 5740 5738 5735 5733 5730 5728 5725 5722 5720 5717 5714 5711 5708 5705 5702 5699 5697 5694 5692 5690 5688 5686 5685 5683 5682 5682 5681 5680
5760 5760 5759 5759 5758 5757 5756 5755 5753 5752 5750 5748 5746 5744 5742 5740 5738 5735 5733 5730 5728 5725 5723 5720 5717 5714 5711 5708 5705 5702 5700 5697 5695 5693 5691 5689 5687 5685 5684 5683 5681 5680 5680
5759 5759 5758 5757 5757 5756 5755 5754 5753 5751 5749 5747 5746 5744 5742 5740 5738 5735 5733 5730 5728 5725 5723 5720 5718 5715 5712 5709 5706 5704 5701 5698 5696 5694 5692 5690 5688 5686 5685 5683 5682 5681 5680